Regional Weather Roundup
Issued by NWS Midland/Odessa, TX

Home | Current Version | Previous Version | Text Only | Print | Product List | Glossary On
Versions: 1 2 3 4 5 6 7 8 9 10 11 12 13 14 15 16 17 18 19 20 21 22 23 24 25 26 27 28 29 30 31 32 33 34 35 36 37 38 39 40 41 42 43 44 45 46 47 48 49 50
000
ASUS44 KMAF 022210
RWRMAF
MIDLAND AREA WEATHER ROUNDUP
NATIONAL WEATHER SERVICE MIDLAND TX
400 PM CST FRI DEC 02 2016

...IN SOUTHWEST TEXAS AND SOUTHEAST NEW MEXICO...

CITY           SKY/WX    TMP DP  RH WIND       PRES   REMARKS
ALPINE         CLOUDY    52  36  53 N5        30.02R
ANDREWS        DRZL/FOG  45  45 100 NE9       29.98S VSB 1/2 WCI  40
ARTESIA        CLOUDY    50  36  57 N9        29.98F
BIG SPRING     CLOUDY    46  46  97 N9        30.02R
CARLSBAD       CLOUDY    48  38  68 N9        29.98R
DRYDEN           N/A     62  56  80 E10       29.90R
FORT STOCKTON  CLOUDY    53  40  61 W8        29.95R
GUAD PASS      CLOUDY    46  26  45 NE31      29.94R WCI  36
HOBBS          CLOUDY    45  45 100 N12       29.99R WCI  39
MARFA          CLOUDY    53  43  68 NE5       29.96F
MIDLAND AIRPK  CLOUDY    49  49 100 NE10      29.99R FOG
MIDLAND INTL   CLOUDY    54  51  90 E13       29.97R
ODESSA         CLOUDY    54  50  86 E13       29.97R
PECOS          CLOUDY    55  40  58 W3        29.95R
PRESIDIO       CLOUDY    61  32  33 SW3       29.88S
SEMINOLE       CLOUDY    44  43  98 NE10      30.00S FOG     WCI  38
SNYDER         LGT RAIN  41  40  97 N12       30.03R WCI  34
WINK           CLOUDY    57  50  77 NE13      29.93R
$$
...OTHER STATIONS IN TEXAS...

CITY           SKY/WX    TMP DP  RH WIND       PRES   REMARKS
ABILENE        CLOUDY    56  53  90 SE15      30.02R FOG
AMARILLO       CLOUDY    48  22  35 NE15      30.08R
AUSTIN         CLOUDY    61  56  83 NE12      29.99F
BROWNSVILLE    CLOUDY    82  70  66 SE10      29.83F
CORPUS CHRISTI CLOUDY    73  68  84 E22G32    29.87F
DALLAS FTW     CLOUDY    64  30  27 E14       30.05F
DEL RIO        LGT RAIN  62  61  96 E9        29.91R FOG
EL PASO        PTSUNNY   62  26  25 S7        29.87S
HOUSTON INT    CLOUDY    63  48  58 E14       30.05F
LUBBOCK        CLOUDY    39  36  89 NE10      30.03R WCI  32
SAN ANGELO     CLOUDY    57  54  89 E8        29.98R
SAN ANTONIO    LGT RAIN  61  57  87 NE10      29.96S
WACO           CLOUDY    64  35  34 E12       30.05F
WICHITA FALLS  NOT AVBL
$$
...OTHER LOCATIONS IN NEW MEXICO...

CITY           SKY/WX    TMP DP  RH WIND       PRES   REMARKS
ALAMAGORDO     NOT AVBL
ALBUQUERQUE    CLOUDY    46  19  34 E22       29.96R WCI  38
CANNON AFB     CLOUDY    45  25  45 E17       30.04R WCI  37
CLOVIS         CLOUDY    45  23  42 NE12      30.05R WCI  39
HOLLOMAN AFB   MOSUNNY   61  25  25 W7        29.91F
ROSWELL        CLOUDY    52  32  46 N9        29.98S
RUIDOSO        CLOUDY    37  23  56 E7        30.02F WCI  32
SANTA FE       CLOUDY    43  19  38 SE15      29.99R WCI  36
TRUTH OR CONSE MOSUNNY   57  19  22 S12       29.89S
TUCUMCARI      CLOUDY    44  19  36 NE12      30.08R WCI  38
$$



USA.gov is the U.S. government's official web portal to all federal, state and local government web resources and services.